Location: *
(47.7167°N, 1.7333°W)
Time: 09:37:53
(UTC+00:00)

Cosmos 2082 Rocket - Pass Details

Date: 09 April 2020
Orbit: 832 x 855 km, 71.0° (Epoch: 06 June)

Event Time Altitude Azimuth Distance (km) Brightness Sun altitude
Exits shadow 22:14:51 48° 47° (NE) 1,094 2.7 -28.9°
Drops below altitude 10° 22:18:57 10° 31° (NNE) 2,470 4.9 -29.3°
Sets 22:21:25 0° 30° (NNE) 3,413 5.7 -29.5°
